Home > Weather > Bad Oeynhausen > Past weeks

Flag for Germany Past Weather in Bad Oeynhausen, North Rhine-Westphalia, Germany — Yesterday and Last 2 Weeks

Now
55 °F

Fog.


Feels Like: 54 °F
Forecast: 56 / 74 °F
Wind: 7 mph from East

Location: Bueckeburg

Current Time: May 27, 2016 at 10:30:43 AM

Latest Report: May 27, 2016 at 9:20 AM


Visibility: 2 mi

Pressure: 30.04 "Hg

Humidity: 94%

Dew Point: 54 °F

Location of Bad OeynhausenLocation

Past Weather in Bad Oeynhausen — Graph

°F

Bad Oeynhausen Temperature Yesterday

Maximum temperature yesterday: 68 °F (at 2:47 PM)
Minimum temperature yesterday: 48 °F (at 2:20 AM)
Average temperature yesterday: 59 °F

High & Low Weather Summary for the Past Weeks

 TemperatureHumidityPressure
High79 °F (May 22, 2:20 PM)100% (May 22, 8:20 PM)30.07 "Hg (May 22, 8:20 PM)
Low41 °F (May 15, 4:20 AM)29% (May 13, 2:20 PM)29.53 "Hg (May 12, 5:20 PM)
Average57 °F71%29.89 "Hg
* Reported May 12 9:20 AM — May 27 9:20 AM, Bad Oeynhausen, Weather by CustomWeather, © 2016

Note: Actual official high and low records may vary slightly from our data, if they occured in-between our weather recording intervals... More about our weather records

Advertising

Bad Oeynhausen Weather History for the Previous 24 Hours

Scroll right to see more
 ConditionsComfort  
Time TempWeatherWind HumidityBarometerVisibility
9:20 AM
Fri, May 27
55 °FFog.7 mph94%30.04 "Hg1 mi
8:20 AM55 °FFog.2 mph94%30.04 "Hg1 mi
7:20 AM52 °FFog.1 mph100%30.04 "Hg1 mi
6:20 AM50 °FFog.2 mph100%30.04 "Hg0 mi
5:20 AM50 °FCool.1 mph100%30.01 "Hg0 mi
4:20 AM52 °FCool.2 mph94%30.01 "Hg1 mi
3:20 AM52 °FCool.3 mph100%30.01 "Hg3 mi
2:20 AM54 °FCool.3 mph94%30.01 "Hg4 mi
1:20 AM55 °FCool.3 mph88%30.04 "Hg4 mi
12:20 AM55 °FCool.2 mph94%30.04 "Hg4 mi
11:56 PM
Thu, May 26
57 °FPartly cloudy.5 mph88%30.04 "HgN/A
11:20 PM57 °FPartly cloudy.2 mph88%30.04 "HgN/A
10:20 PM57 °FBroken clouds.7 mph82%30.04 "HgN/A
9:20 PM59 °FScattered clouds.6 mph82%30.01 "HgN/A
8:20 PM63 °FScattered clouds.7 mph68%30.01 "HgN/A
7:20 PM66 °FPassing clouds.5 mph52%30.01 "HgN/A
6:20 PM66 °FPassing clouds.7 mph52%30.01 "HgN/A
5:20 PM68 °FPassing clouds.3 mph49%30.01 "HgN/A
4:20 PM66 °FScattered clouds.5 mph52%30.01 "Hg5 mi
3:20 PM66 °FScattered clouds.5 mph49%30.01 "Hg4 mi
2:47 PM68 °FScattered clouds.8 mph49%30.01 "Hg4 mi
2:20 PM66 °FPartly sunny.6 mph49%30.04 "Hg5 mi
1:20 PM64 °FBroken clouds.5 mph60%30.04 "Hg6 mi
12:20 PM64 °FPartly sunny.5 mph56%30.04 "HgN/A
11:20 AM63 °FPartly sunny.5 mph59%30.04 "HgN/A
10:20 AM61 °FPartly sunny.5 mph68%30.04 "HgN/A
Weather by CustomWeather, © 2016

See weather overviewHow to use our weather pages